Wind_Speed
121 116 105 101 102 102 98 93 88 90 96 90 83 83 76 73 68 60 59 57 61 65 63 60 59 55 56 53 53 49 51 42 44 44 41 39 39 38 39 36 38 38 38 41
120 113 112 113 110 105 102 97 92 92 93 89 88 85 82 75 69 68 62 61 59 59 60 65 60 56 58 56 57 54 52 49 46 47 39 42 44 45 43 41 42 44 45 48
115 113 115 113 112 108 105 99 97 97 97 90 89 85 83 76 73 69 61 60 57 60 59 60 59 55 56 58 58 58 54 51 51 50 49 46 47 45 49 48 49 49 49 50
114 113 116 119 115 112 111 106 105 102 103 98 93 88 87 82 76 71 67 63 65 63 61 61 56 58 60 60 55 57 58 52 48 52 53 52 50 51 53 53 53 54 56 57
110 111 111 112 115 117 112 114 112 111 108 104 98 91 83 84 78 74 70 71 68 65 60 63 64 64 62 59 56 57 58 58 52 50 56 57 55 54 53 56 56 58 60 62
111 111 110 110 116 122 120 117 116 115 113 109 95 94 81 81 78 78 79 77 74 68 63 64 67 71 70 62 59 57 58 54 53 52 55 54 56 57 55 57 58 60 62 62
105 106 107 110 114 115 119 119 120 119 117 102 98 103 80 81 79 78 80 80 76 74 69 65 68 71 72 69 63 61 65 65 62 55 55 59 58 57 62 62 57 59 63 67
103 104 105 108 109 112 115 121 122 121 117 108 108 106 87 84 84 82 83 83 81 76 77 71 69 73 72 74 72 69 65 67 64 63 63 62 64 64 65 69 65 66 67 69
100 102 106 108 111 114 118 118 121 126 124 119 115 103 98 93 89 87 90 88 86 82 78 78 75 74 80 80 81 79 73 75 72 73 71 70 71 72 71 69 72 75 75 75
101 102 104 105 108 111 115 120 124 126 125 123 115 108 103 96 97 91 91 93 92 87 81 79 80 78 74 74 72 75 75 78 79 80 79 77 75 75 78 79 77 77 78 78
96 98 99 102 102 107 111 115 121 124 123 122 119 115 108 105 100 102 93 91 95 93 88 83 82 82 81 75 73 75 76 75 76 79 84 82 80 81 81 80 83 84 85 85
94 97 98 98 100 103 105 107 115 119 116 121 124 117 112 113 107 107 105 98 94 96 94 89 84 83 82 81 76 76 78 75 76 78 80 87 88 85 85 88 90 92 91 91
95 94 95 95 95 97 100 102 106 109 118 118 121 112 113 110 112 110 110 106 101 97 96 96 92 86 85 84 82 79 79 80 75 74 73 75 77 81 85 87 89 87 87 87
99 96 94 90 91 95 96 100 104 109 114 108 117 106 111 110 112 115 115 111 106 103 99 97 99 96 91 89 88 86 83 82 81 79 79 76 73 75 79 80 81 80 80 82
100 98 95 92 93 94 95 97 102 107 105 111 101 108 103 110 114 114 116 115 108 106 105 103 99 101 100 96 93 90 90 89 88 87 84 83 81 79 80 81 82 82 85 87
105 100 100 96 94 96 99 98 98 98 100 106 99 103 93 102 108 110 114 116 115 111 108 107 104 100 100 101 100 96 94 94 93 92 90 89 87 86 86 87 88 89 92 93
104 101 102 97 100 101 102 88 94 97 98 100 101 90 89 102 105 111 115 115 117 117 114 112 109 107 105 102 102 103 102 98 97 96 95 95 93 92 92 94 95 96 97 98
104 105 106 100 103 104 88 94 94 96 94 99 96 92 91 96 100 104 108 111 114 113 115 113 112 111 110 108 105 104 104 105 104 102 101 101 100 101 101 102 103 103 104 106
103 107 106 103 103 97 93 87 92 100 92 97 92 84 90 99 103 101 100 106 111 114 116 114 113 114 113 111 110 109 106 106 107 108 107 107 108 109 110 111 111 112 111 112
101 102 105 101 97 95 71 91 97 102 93 83 88 83 86 97 101 85 101 105 108 112 115 116 114 115 116 115 114 112 112 112 111 111 113 113 113 114 114 114 114 115 115 116
89 90 88 86 89 78 72 90 99 97 74 82 89 87 94 96 83 89 98 103 105 107 111 116 118 116 116 116 116 116 116 117 116 116 115 116 117 118 118 117 118 119 121 121
73 76 72 70 74 53 66 79 82 76 76 81 86 88 89 88 88 88 87 89 93 96 104 107 109 114 117 118 116 116 117 118 118 118 119 119 120 121 122 122 123 124 124 125
64 64 65 65 56 56 61 63 67 68 72 75 77 78 81 81 82 83 82 82 83 86 89 93 99 103 110 116 117 116 116 116 117 119 120 121 122 124 124 126 126 128 129 129
68 67 64 65 55 54 57 62 62 59 63 69 72 75 76 79 79 78 77 75 76 80 82 83 87 94 98 103 110 116 117 118 118 117 119 122 123 124 125 127 129 130 131 131
77 75 70 67 63 61 63 64 65 66 68 71 74 75 76 77 78 78 79 75 75 77 79 83 88 94 97 102 106 110 112 113 115 117 117 117 118 121 124 123 124 125 126 127
86 81 78 73 71 69 71 71 72 73 74 75 75 77 80 80 80 79 75 72 71 72 75 77 79 81 90 98 102 103 105 109 113 112 110 111 112 114 118 119 118 117 119 118
Wind_Direction
220 219 220 222 223 222 223 223 226 229 231 231 234 237 238 237 234 234 238 244 245 244 246 249 249 250 254 252 257 259 256 253 249 252 254 258 260 262 262 259 256 267 272 276
221 220 220 221 223 223 224 223 226 231 232 231 232 236 238 237 238 239 240 242 243 244 245 248 249 251 251 250 255 256 256 257 254 252 253 254 257 260 263 267 267 270 270 272
223 222 222 221 224 224 224 225 226 230 234 231 231 233 239 238 236 242 242 238 243 240 239 246 244 246 247 246 250 254 253 257 256 253 258 258 256 257 261 264 269 270 273 275
221 222 223 222 222 224 224 225 228 228 232 232 228 226 235 236 237 241 246 244 241 244 242 241 244 243 239 244 245 245 246 249 253 255 256 259 262 260 261 262 265 269 272 276
220 220 218 222 223 224 224 226 227 228 230 231 229 227 232 236 237 239 242 247 245 244 245 239 244 241 240 243 246 245 247 247 250 257 260 260 262 266 266 266 270 273 275 277
222 221 219 219 221 224 223 226 227 229 230 231 231 231 226 237 236 240 242 245 249 245 243 245 246 242 240 242 249 245 243 245 254 256 260 266 266 266 265 269 273 276 277 278
224 223 223 221 222 224 224 226 229 230 232 231 232 233 223 236 238 240 242 243 246 247 246 240 245 241 241 238 247 251 248 246 252 257 261 264 268 271 266 266 275 282 280 278
224 225 225 223 223 224 225 227 229 231 232 231 230 232 228 232 238 239 241 242 242 243 245 242 239 241 240 244 249 250 250 246 251 256 260 264 265 266 268 269 273 275 278 279
227 225 226 224 226 226 226 225 230 231 231 231 232 231 229 228 234 238 242 242 242 241 240 244 246 246 243 247 250 250 250 247 250 255 259 259 262 264 266 269 272 272 275 279
226 226 227 227 228 230 229 228 229 231 231 232 233 232 232 231 231 235 240 244 243 242 242 242 245 247 247 249 250 251 253 251 250 254 258 258 262 265 267 268 271 273 275 278
227 228 228 228 228 229 231 231 232 231 232 233 232 233 233 231 234 234 235 240 244 243 241 242 244 246 248 250 251 251 251 252 254 257 258 259 262 264 267 268 269 271 274 276
227 228 227 229 228 231 232 231 234 234 234 233 232 230 232 233 232 233 235 236 239 243 242 239 240 243 247 249 250 253 256 254 258 257 258 260 262 265 268 268 269 271 273 275
228 228 229 229 230 231 233 234 234 236 234 234 234 231 234 233 233 232 234 237 238 240 243 243 240 240 242 246 247 249 253 256 258 257 260 260 264 263 263 265 267 271 272 274
228 229 229 229 229 230 231 232 233 235 235 234 234 232 232 235 234 232 232 235 237 239 241 244 246 244 242 244 247 250 252 256 259 260 261 263 263 263 263 266 267 269 269 270
230 230 230 229 229 231 232 232 233 235 237 237 237 235 235 234 235 233 233 234 237 241 243 244 246 247 246 246 247 250 253 255 257 259 260 262 264 265 265 266 267 269 272 275
230 230 232 230 230 232 233 233 235 237 240 241 238 239 239 239 238 237 235 234 234 237 241 244 246 248 249 249 249 248 249 252 255 257 260 262 263 265 266 267 269 271 273 274
233 234 234 232 233 233 234 237 238 236 238 241 240 238 236 239 240 238 236 236 235 236 239 244 246 247 249 251 252 253 252 252 253 256 258 260 261 262 264 265 267 269 271 273
233 235 236 236 237 237 237 235 238 241 240 243 242 239 239 241 241 241 240 237 238 240 240 243 247 249 250 251 253 254 255 256 255 255 255 257 259 261 263 264 266 268 269 271
235 237 239 239 239 239 236 241 242 243 238 241 243 243 243 242 242 243 244 243 239 239 239 241 245 248 250 252 253 254 255 256 257 257 257 257 259 260 263 264 265 267 269 271
237 238 240 241 240 241 235 242 242 244 240 248 247 246 248 248 245 244 247 246 244 244 242 242 243 246 249 251 253 255 256 256 256 258 259 260 260 261 261 263 264 267 268 268
238 240 241 242 244 242 237 243 243 242 244 245 249 246 247 250 247 243 246 246 246 247 246 246 246 247 250 252 254 255 256 257 258 259 260 261 261 262 263 263 264 266 266 268
237 239 240 239 243 235 237 240 243 242 241 240 245 246 246 248 248 249 251 252 251 250 249 249 249 248 249 250 252 253 255 256 258 258 259 260 262 263 265 266 267 268 270 272
237 239 239 238 237 227 230 236 242 238 235 236 239 246 249 249 250 251 251 250 252 252 251 249 249 248 249 249 250 251 253 256 257 258 259 260 261 262 264 266 269 270 271 274
235 238 238 238 236 231 231 231 231 233 237 237 238 240 244 246 249 252 253 253 251 249 250 250 248 247 247 248 249 250 252 254 256 258 259 259 260 262 265 266 268 270 272 275
237 236 238 237 236 234 231 232 233 232 235 239 242 243 246 250 253 255 257 257 254 252 251 249 248 246 247 247 248 249 251 253 254 256 258 260 262 264 266 268 270 272 274 276
235 236 238 239 238 239 239 237 239 237 240 245 248 250 251 254 256 257 257 256 253 251 250 250 250 250 250 249 250 252 254 255 256 258 261 263 265 266 268 271 274 275 277 280
Height
10601 10624 10655 10669 10673 10677 10690 10705 10717 10721 10726 10742 10757 10761 10771 10784 10797 10802 10809 10816 10821 10824 10830 10834 10837 10841 10843 10843 10847 10849 10849 10851 10853 10854 10854 10855 10854 10854 10852 10851 10849 10849 10848 10846
10589 10623 10632 10635 10651 10665 10680 10694 10706 10708 10710 10730 10740 10752 10757 10774 10788 10790 10800 10806 10809 10814 10820 10823 10826 10831 10832 10836 10836 10839 10841 10843 10844 10845 10846 10846 10847 10846 10845 10844 10843 10842 10839 10837
10574 10598 10608 10622 10637 10652 10665 10680 10688 10692 10694 10713 10726 10743 10748 10764 10775 10780 10790 10796 10800 10801 10806 10811 10815 10819 10824 10825 10827 10831 10834 10833 10834 10836 10836 10836 10836 10837 10836 10836 10835 10833 10831 10829
10546 10571 10585 10600 10619 10630 10645 10658 10662 10670 10674 10692 10707 10731 10736 10749 10765 10775 10777 10783 10786 10789 10796 10803 10807 10809 10811 10811 10819 10821 10822 10824 10824 10826 10826 10826 10826 10826 10828 10827 10825 10823 10821 10819
10541 10549 10567 10586 10604 10608 10631 10630 10640 10645 10657 10668 10693 10716 10733 10736 10755 10761 10761 10765 10771 10779 10785 10790 10794 10796 10798 10801 10805 10809 10813 10814 10814 10816 10816 10817 10816 10816 10818 10816 10815 10814 10812 10809
10517 10535 10551 10570 10574 10585 10600 10608 10620 10629 10637 10651 10697 10701 10729 10728 10743 10742 10746 10752 10757 10766 10774 10776 10779 10782 10787 10789 10794 10798 10801 10802 10805 10805 10805 10805 10806 10808 10807 10805 10803 10802 10800 10797
10510 10528 10542 10553 10562 10573 10591 10598 10604 10614 10622 10667 10678 10676 10730 10719 10727 10731 10730 10737 10744 10754 10759 10763 10764 10768 10773 10779 10781 10785 10789 10791 10792 10795 10795 10794 10794 10795 10794 10793 10792 10792 10788 10784
10493 10508 10525 10541 10551 10559 10569 10577 10592 10599 10614 10648 10647 10658 10710 10710 10705 10710 10713 10718 10728 10737 10740 10747 10752 10755 10760 10764 10769 10773 10774 10776 10781 10782 10783 10783 10782 10782 10781 10779 10780 10779 10775 10771
10478 10492 10503 10518 10525 10533 10547 10565 10568 10573 10592 10610 10628 10661 10680 10691 10695 10696 10693 10700 10711 10717 10725 10732 10737 10740 10746 10751 10754 10758 10760 10762 10766 10768 10769 10771 10769 10767 10767 10766 10765 10762 10760 10757
10458 10471 10482 10497 10509 10522 10534 10541 10539 10554 10577 10595 10620 10644 10663 10674 10679 10679 10680 10683 10690 10703 10713 10716 10720 10726 10730 10734 10739 10743 10746 10747 10750 10751 10755 10756 10756 10755 10752 10752 10751 10747 10744 10743
10445 10456 10469 10479 10497 10502 10511 10523 10528 10539 10558 10579 10603 10624 10640 10653 10660 10664 10665 10663 10670 10683 10694 10701 10705 10711 10715 10719 10724 10727 10730 10733 10735 10737 10738 10741 10740 10740 10739 10738 10735 10732 10729 10726
10426 10435 10451 10464 10475 10484 10492 10507 10510 10525 10555 10554 10566 10597 10613 10624 10637 10642 10645 10646 10652 10661 10672 10683 10689 10695 10699 10703 10706 10708 10712 10715 10719 10721 10722 10722 10723 10724 10724 10722 10720 10718 10715 10712
10406 10426 10435 10447 10463 10474 10483 10490 10499 10508 10511 10535 10547 10592 10593 10607 10617 10622 10628 10631 10635 10643 10653 10662 10672 10678 10682 10684 10688 10691 10693 10696 10700 10702 10703 10704 10704 10705 10704 10703 10701 10700 10699 10697
10386 10404 10421 10440 10444 10446 10457 10467 10476 10479 10485 10522 10520 10560 10575 10585 10590 10598 10604 10610 10616 10626 10635 10645 10652 10659 10666 10670 10672 10675 10678 10681 10683 10684 10685 10686 10686 10687 10686 10685 10684 10682 10681 10680
10371 10389 10404 10419 10427 10433 10443 10451 10456 10464 10489 10490 10532 10537 10554 10560 10563 10576 10588 10603 10610 10611 10618 10623 10630 10639 10646 10651 10655 10659 10662 10664 10665 10666 10667 10668 10669 10670 10670 10668 10667 10666 10664 10662
10351 10374 10384 10403 10411 10415 10422 10434 10449 10468 10479 10478 10512 10517 10541 10537 10544 10559 10566 10576 10585 10589 10591 10599 10611 10619 10625 10630 10634 10637 10641 10644 10646 10648 10650 10650 10651 10652 10652 10651 10650 10647 10644 10641
10343 10362 10371 10389 10388 10395 10403 10450 10442 10445 10455 10466 10481 10518 10492 10513 10521 10529 10533 10552 10566 10572 10578 10583 10592 10599 10603 10609 10615 10618 10621 10625 10627 10629 10630 10631 10630 10631 10631 10630 10629 10626 10624 10621
10335 10343 10348 10368 10368 10371 10421 10417 10426 10432 10447 10445 10464 10485 10486 10492 10494 10503 10522 10543 10554 10561 10565 10572 10571 10574 10581 10587 10592 10596 10600 10604 10607 10607 10608 10609 10610 10610 10610 10609 10607 10605 10602 10598
10320 10321 10328 10340 10351 10368 10393 10417 10413 10404 10428 10422 10442 10467 10467 10463 10470 10496 10509 10515 10523 10523 10534 10546 10548 10551 10555 10562 10568 10574 10578 10581 10582 10585 10586 10587 10588 10589 10588 10587 10585 10581 10580 10576
10297 10303 10304 10325 10336 10351 10412 10387 10382 10375 10400 10436 10428 10445 10446 10433 10453 10510 10470 10476 10490 10501 10510 10517 10526 10530 10532 10537 10545 10551 10553 10554 10556 10559 10561 10564 10565 10564 10563 10562 10559 10557 10555 10550
10278 10284 10296 10315 10316 10349 10383 10362 10352 10360 10419 10412 10408 10422 10410 10413 10453 10443 10435 10457 10471 10480 10490 10499 10506 10512 10514 10516 10521 10525 10527 10529 10532 10535 10538 10539 10538 10538 10538 10535 10534 10532 10527 10526
10265 10270 10287 10297 10300 10348 10344 10332 10341 10365 10372 10382 10379 10387 10395 10405 10413 10427 10432 10440 10451 10461 10465 10471 10479 10486 10489 10489 10493 10495 10498 10503 10508 10510 10511 10512 10511 10509 10510 10509 10507 10504 10503 10501
10255 10262 10268 10278 10302 10313 10315 10322 10330 10341 10351 10357 10363 10370 10380 10392 10399 10402 10410 10418 10425 10431 10438 10443 10450 10455 10456 10464 10468 10471 10474 10478 10481 10481 10482 10483 10484 10482 10482 10480 10480 10477 10474 10474
10243 10250 10260 10267 10292 10299 10306 10311 10319 10328 10336 10340 10349 10357 10364 10368 10375 10381 10387 10395 10402 10405 10411 10418 10423 10425 10431 10436 10440 10444 10449 10452 10454 10456 10456 10455 10454 10454 10454 10453 10451 10450 10447 10445
10227 10236 10251 10262 10275 10286 10293 10299 10308 10315 10319 10325 10332 10340 10346 10353 10357 10362 10365 10375 10380 10384 10390 10394 10398 10403 10407 10411 10415 10421 10424 10426 10427 10428 10429 10428 10428 10427 10424 10425 10424 10422 10419 10416
10210 10223 10233 10249 10259 10268 10274 10282 10288 10298 10303 10308 10316 10323 10329 10334 10340 10343 10350 10355 10359 10363 10367 10372 10377 10381 10385 10388 10392 10396 10400 10403 10404 10404 10404 10403 10402 10400 10399 10399 10397 10395 10393 10389